When you browse on this site, cookies collect data to enhance your experience and personalize the content and advertising you see.
Visit our Privacy Policy to learn more. By continuing to use the site, you agree to this use of cookies and data.
  • In Deutschland
  • Länderverzeichnis
  • Für 7 Tage
  • Wassertemperatur
  • Wetterkarte
  • Widgets
  • user-avatar
    Anmelden

    Stündliche Wetter Albany

    Heute, 25 August, Sonntag

    Zeit Temperatur Niederschläge Wind Luftdruck Luftfeuchtigkeit
    00:00 +10°C° 0 mm 2 m/S 767 mmHg 79%
    01:00 +10°C° 0 mm 2 m/S 767 mmHg 78%
    02:00 +11°C° 0 mm 1 m/S 766 mmHg 77%
    03:00 +11°C° 0 mm 1 m/S 766 mmHg 78%
    04:00 +10°C° 0 mm 1 m/S 766 mmHg 78%
    05:00 +10°C° 0 mm 1 m/S 767 mmHg 79%
    06:00 +9°C° 0 mm 2 m/S 767 mmHg 80%
    07:00 +9°C° 0 mm 2 m/S 767 mmHg 82%
    08:00 +9°C° 0 mm 3 m/S 767 mmHg 80%
    09:00 +11°C° 0 mm 3 m/S 767 mmHg 73%
    10:00 +13°C° 0 mm 2 m/S 767 mmHg 66%
    11:00 +15°C° 0 mm 2 m/S 767 mmHg 58%
    12:00 +15°C° 0 mm 2 m/S 766 mmHg 58%
    13:00 +16°C° 0 mm 1 m/S 766 mmHg 58%
    14:00 +16°C° 0 mm 1 m/S 765 mmHg 58%
    15:00 +15°C° 0 mm 1 m/S 766 mmHg 62%
    16:00 +14°C° 0 mm 2 m/S 766 mmHg 66%
    17:00 +14°C° 0 mm 2 m/S 766 mmHg 70%
    18:00 +12°C° 0 mm 2 m/S 766 mmHg 75%
    19:00 +11°C° 0 mm 1 m/S 766 mmHg 80%
    20:00 +10°C° 0 mm 1 m/S 766 mmHg 81%
    21:00 +9°C° 0 mm 1 m/S 767 mmHg 84%
    22:00 +9°C° 0 mm 1 m/S 767 mmHg 86%
    23:00 +7°C° 0 mm 2 m/S 767 mmHg 88%

    Morgen, 26 August, Montag

    Zeit Temperatur Niederschläge Wind Luftdruck Luftfeuchtigkeit
    00:00 +7°C° 0 mm 2 m/S 767 mmHg 89%
    01:00 +7°C° 0 mm 2 m/S 766 mmHg 89%
    02:00 +7°C° 0 mm 2 m/S 766 mmHg 89%
    03:00 +6°C° 0 mm 2 m/S 766 mmHg 90%
    04:00 +6°C° 0 mm 2 m/S 766 mmHg 90%
    05:00 +6°C° 0 mm 2 m/S 766 mmHg 90%
    06:00 +7°C° 0 mm 2 m/S 766 mmHg 87%
    07:00 +8°C° 0 mm 2 m/S 766 mmHg 85%
    08:00 +9°C° 0 mm 2 m/S 767 mmHg 82%
    09:00 +12°C° 0 mm 2 m/S 767 mmHg 75%
    10:00 +14°C° 0 mm 2 m/S 767 mmHg 67%
    11:00 +16°C° 0 mm 2 m/S 767 mmHg 60%
    12:00 +18°C° 0 mm 1 m/S 766 mmHg 58%
    13:00 +18°C° 0 mm 1 m/S 765 mmHg 56%
    14:00 +19°C° 0 mm 1 m/S 765 mmHg 54%
    15:00 +18°C° 0 mm 1 m/S 765 mmHg 59%
    16:00 +16°C° 0 mm 1 m/S 765 mmHg 65%
    17:00 +15°C° 0 mm 1 m/S 765 mmHg 71%
    18:00 +13°C° 0 mm 1 m/S 765 mmHg 75%
    19:00 +12°C° 0 mm 1 m/S 765 mmHg 80%
    20:00 +10°C° 0 mm 1 m/S 765 mmHg 84%
    21:00 +10°C° 0 mm 1 m/S 765 mmHg 85%
    22:00 +9°C° 0 mm 2 m/S 765 mmHg 86%
    23:00 +8°C° 0 mm 2 m/S 765 mmHg 88%

    übermorgen, 27 August, Dienstag

    Zeit Temperatur Niederschläge Wind Luftdruck Luftfeuchtigkeit
    00:00 +8°C° 0 mm 2 m/S 765 mmHg 87%
    01:00 +8°C° 0 mm 2 m/S 765 mmHg 86%
    02:00 +8°C° 0 mm 2 m/S 765 mmHg 86%
    03:00 +8°C° 0 mm 2 m/S 765 mmHg 84%
    04:00 +8°C° 0 mm 2 m/S 765 mmHg 82%
    05:00 +8°C° 0 mm 2 m/S 765 mmHg 81%
    06:00 +9°C° 0 mm 2 m/S 765 mmHg 79%
    07:00 +9°C° 0 mm 2 m/S 765 mmHg 78%
    08:00 +10°C° 0 mm 2 m/S 765 mmHg 76%
    09:00 +13°C° 0 mm 2 m/S 765 mmHg 70%
    10:00 +14°C° 0 mm 3 m/S 765 mmHg 64%
    11:00 +17°C° 0 mm 3 m/S 765 mmHg 59%
    12:00 +18°C° 0 mm 2 m/S 764 mmHg 56%
    13:00 +18°C° 0 mm 2 m/S 763 mmHg 53%
    14:00 +19°C° 0 mm 2 m/S 763 mmHg 50%
    15:00 +18°C° 0 mm 2 m/S 763 mmHg 56%
    16:00 +17°C° 0 mm 2 m/S 763 mmHg 62%
    17:00 +16°C° 0 mm 2 m/S 763 mmHg 68%
    18:00 +14°C° 0 mm 3 m/S 763 mmHg 70%
    19:00 +13°C° 0 mm 3 m/S 763 mmHg 72%
    20:00 +12°C° 0 mm 3 m/S 763 mmHg 74%
    21:00 +11°C° 0 mm 4 m/S 763 mmHg 75%
    22:00 +11°C° 0 mm 4 m/S 763 mmHg 76%
    23:00 +10°C° 0 mm 4 m/S 763 mmHg 77%

    28 August, Mittwoch

    Zeit Temperatur Niederschläge Wind Luftdruck Luftfeuchtigkeit
    00:00 +10°C° 0 mm 4 m/S 762 mmHg 76%
    01:00 +9°C° 0 mm 5 m/S 762 mmHg 75%
    02:00 +9°C° 0 mm 5 m/S 761 mmHg 74%
    03:00 +9°C° 0 mm 5 m/S 761 mmHg 71%
    04:00 +9°C° 0 mm 5 m/S 761 mmHg 69%
    05:00 +9°C° 0 mm 5 m/S 761 mmHg 66%
    06:00 +10°C° 0 mm 4 m/S 761 mmHg 64%
    07:00 +11°C° 0 mm 4 m/S 761 mmHg 61%
    08:00 +11°C° 0 mm 4 m/S 761 mmHg 59%
    09:00 +13°C° 0 mm 4 m/S 760 mmHg 57%
    10:00 +17°C° 0 mm 4 m/S 760 mmHg 55%
    11:00 +19°C° 0 mm 4 m/S 760 mmHg 54%
    12:00 +20°C° 0 mm 3 m/S 759 mmHg 55%
    13:00 +21°C° 0 mm 3 m/S 759 mmHg 56%
    14:00 +22°C° 0 mm 3 m/S 758 mmHg 56%
    15:00 +21°C° 0 mm 3 m/S 758 mmHg 62%
    16:00 +20°C° 0 mm 3 m/S 757 mmHg 68%
    17:00 +20°C° 0 mm 3 m/S 757 mmHg 74%
    18:00 +18°C° 0 mm 3 m/S 757 mmHg 77%
    19:00 +17°C° 0 mm 3 m/S 757 mmHg 81%
    20:00 +14°C° 0 mm 3 m/S 757 mmHg 84%
    21:00 +14°C° 0 mm 4 m/S 756 mmHg 81%
    22:00 +14°C° 0 mm 4 m/S 755 mmHg 78%
    23:00 +14°C° 0 mm 4 m/S 755 mmHg 75%

    29 August, Donnerstag

    Zeit Temperatur Niederschläge Wind Luftdruck Luftfeuchtigkeit
    00:00 +14°C° 0 mm 4 m/S 754 mmHg 72%
    01:00 +14°C° 0 mm 4 m/S 754 mmHg 68%
    02:00 +14°C° 0 mm 5 m/S 753 mmHg 65%
    03:00 +14°C° 0 mm 5 m/S 753 mmHg 63%
    04:00 +14°C° 0 mm 5 m/S 752 mmHg 61%
    05:00 +14°C° 0 mm 5 m/S 752 mmHg 59%
    06:00 +14°C° 0 mm 6 m/S 752 mmHg 63%
    07:00 +14°C° 0 mm 6 m/S 752 mmHg 66%
    08:00 +15°C° 0 mm 6 m/S 751 mmHg 69%
    09:00 +16°C° 0 mm 6 m/S 751 mmHg 68%
    10:00 +18°C° 0 mm 7 m/S 751 mmHg 67%
    11:00 +21°C° 0 mm 7 m/S 751 mmHg 66%
    12:00 +21°C° 0.1 mm 7 m/S 750 mmHg 68%
    13:00 +21°C° 0.1 mm 7 m/S 749 mmHg 70%
    14:00 +21°C° 0.1 mm 7 m/S 749 mmHg 72%
    15:00 +20°C° 0.1 mm 7 m/S 748 mmHg 74%
    16:00 +19°C° 0.1 mm 6 m/S 748 mmHg 75%
    17:00 +19°C° 0.1 mm 6 m/S 748 mmHg 77%
    18:00 +17°C° 0.1 mm 6 m/S 748 mmHg 77%
    19:00 +17°C° 0.1 mm 7 m/S 748 mmHg 77%
    20:00 +16°C° 0.1 mm 7 m/S 748 mmHg 77%
    21:00 +15°C° 1 mm 7 m/S 747 mmHg 82%
    22:00 +15°C° 1 mm 7 m/S 746 mmHg 87%
    23:00 +14°C° 1 mm 7 m/S 746 mmHg 92%

    30 August, Freitag

    Zeit Temperatur Niederschläge Wind Luftdruck Luftfeuchtigkeit
    00:00 +14°C° 0.9 mm 7 m/S 745 mmHg 92%
    01:00 +13°C° 0.9 mm 8 m/S 745 mmHg 91%
    02:00 +13°C° 0.9 mm 9 m/S 745 mmHg 90%
    03:00 +12°C° 0.3 mm 9 m/S 745 mmHg 89%
    04:00 +10°C° 0.3 mm 9 m/S 746 mmHg 89%
    05:00 +9°C° 0.3 mm 8 m/S 747 mmHg 88%
    06:00 +9°C° 0.2 mm 8 m/S 748 mmHg 86%
    07:00 +9°C° 0.2 mm 8 m/S 748 mmHg 84%
    08:00 +9°C° 0.2 mm 8 m/S 749 mmHg 82%
    09:00 +10°C° 0.4 mm 9 m/S 750 mmHg 78%
    10:00 +11°C° 0.4 mm 9 m/S 750 mmHg 74%
    11:00 +12°C° 0.4 mm 10 m/S 750 mmHg 70%
    12:00 +12°C° 0.6 mm 10 m/S 751 mmHg 70%
    13:00 +12°C° 0.6 mm 10 m/S 751 mmHg 69%
    14:00 +12°C° 0.6 mm 10 m/S 751 mmHg 69%
    15:00 +12°C° 0.1 mm 8 m/S 752 mmHg 68%
    16:00 +12°C° 0.1 mm 7 m/S 752 mmHg 67%
    17:00 +13°C° 0.1 mm 6 m/S 753 mmHg 66%
    18:00 +11°C° 0 mm 6 m/S 753 mmHg 69%
    19:00 +10°C° 0 mm 6 m/S 753 mmHg 71%
    20:00 +9°C° 0 mm 6 m/S 754 mmHg 73%
    21:00 +9°C° 0 mm 6 m/S 753 mmHg 74%
    22:00 +9°C° 0 mm 7 m/S 753 mmHg 74%
    23:00 +9°C° 0 mm 8 m/S 752 mmHg 75%
    Mehr zeigen